User: anonymous   Login
Location: Choisy
(48.7685°N, 2.4187°E)
Time: 02:03:57
(UTC+00:00)
Language:

IRS-1C Rocket - Orbit

View from above orbital plane
View from above orbital plane
View from above satellite
View from above satellite

Ground track
Ground track

The orbit data is extracted from the following two-line orbital elements,

1 23753U 95072C   22026.54745863 -.00000027  00000-0  81403-5 0  9998
2 23753  98.9258  64.9596 0004569  71.3193 288.8483 14.26606650357383
Epoch (UTC): 26 January 2022 13:08:20
Eccentricity: 0.0004569
inclination: 98.9258°
perigee height: 800 km
apogee height: 806 km
right ascension of ascending node: 64.9596°
argument of perigee: 71.3193°
revolutions per day: 14.26606650
mean anomaly at epoch: 288.8483°
orbit number at epoch: 35738

The dashed part of the orbit path shows where the satellite is in the earth's shadow,  

DLR